www.pogodaiklimat.ru

Погода и климат >> Архив погоды >> Гана >> Кофоридуа


ПОГОДА в Кофоридуа

  • Прогноз погоды в Кофоридуа
  • Монитор погоды в Кофоридуа

АРХИВ ПОГОДЫ в Кофоридуа

Время (UTC), дата Ветер
(напр.,м/с)
 
Видим.   Явления Облачность Т
(С)
Тd
(С)
f
(%)
Тe
(С)
Тes
(С)
Комфортность P
(гПа)
Po
(гПа)
Тmin
(С)
Tmax
(С)
R
(мм)
R24
(мм)
S
(см)
18 9.06 ЮЗ 1 16 км 5/1 360 м
[Cb cap Ci sp]
+27.0 +23.3 80 +36 +36 очень
душно
1013.0 993.9 +31.8
21 9.06 Ю 1 13 км 9/9 360 м
[Sc]
+25.6 +22.7 84 +34 +34 очень
душно
1014.7 995.5
00 10.06 ЮЗ 1 13 км 9/9 360 м
[Sc]
+25.1 +23.2 89 +34 +34 очень
душно
1014.6 995.4
03 10.06 ЮЗ 1 13 км 9/9 360 м
[Sc]
+25.0 +23.0 89 +33 +33 очень
душно
1013.7 994.5
06 10.06 Ю 1 9000 м дымка 9/9 330 м
[Sc]
+24.7 +23.0 90 +33 +33 очень
душно
1014.0 994.8 +24.0
09 10.06 ЮЗ 1 12 км 9/6 330 м
[Cu Sc Ac trans]
+26.6 +23.0 81 +36 +39 очень
душно
1015.3 996.2
12 10.06 ЮЗ 1 12 км в посл. час дождь 9/9 330 м
[Cu Sc]
+27.5 +23.7 80 +38 +40 очень
душно
1014.7 995.6 1
15 10.06 штиль 0 9000 м в посл. час морось 9/9 240 м
[Frnb]
+26.1 +24.1 89 +36 +38 очень
душно
1013.0 993.9
18 10.06 ЮЗ 1 14 км {морось} 9/9 360 м
[Sc]
+27.0 +22.8 78 +36 +36 очень
душно
1013.3 994.2 +27.5 3
21 10.06 штиль 0 14 км 9/9 360 м
[Sc]
+25.5 +22.7 85 +34 +34 очень
душно
1014.7 995.5
00 11.06 штиль 0 13 км 4/4 330 м
[Sc]
+23.5 +22.1 92 +30 +30 очень
душно
1014.0 994.7
03 11.06 штиль 0 13 км 9/9 330 м
[Sc]
+23.6 +22.5 94 +31 +31 очень
душно
1014.3 995.0
06 11.06 штиль 0 13 км 9/9 330 м
[Sc]
+24.0 +22.6 92 +31 +31 очень
душно
1015.0 995.7 +22.7 3
09 11.06 СЗ 1 12 км 9/5 360 м
[Cu Sc Ac trans]
+26.6 +23.6 84 +36 +40 очень
душно
1016.0 996.8
15 11.06 ЮЗ 1 17 км 6/6 480 м
[Cu med, cong]
+31.5 +23.9 64 +43 +48 опасность
перегрева
1012.4 993.6
18 11.06 ЮЗ 1 15 км {дождь} 8/5 360 м
[Cu Sc Ac trans]
+28.0 +22.9 74 +37 +37 очень
душно
1012.6 993.6 +32.0 0.0
21 11.06 ЮЗ 1 13 км в посл. час гроза 9/9 360 м
[Sc]
+25.5 +22.1 81 +33 +33 очень
душно
1014.5 995.3
00 12.06 штиль 0 13 км {гроза} 5/5 360 м
[Sc]
+24.8 +22.9 89 +33 +33 очень
душно
1014.4 995.2
03 12.06 штиль 0 13 км 8/8 360 м
[Sc]
+24.6 +22.8 90 +33 +33 очень
душно
1014.0 994.7
06 12.06 штиль 0 13 км 9/9 360 м
[Sc]
+24.6 +22.5 88 +32 +32 очень
душно
1015.3 996.0 +23.6 0.0
15 12.06 З 1 16 км 6/5 480 м
[Cb cap Ac trans Ci fib]
+32.0 +23.9 62 +43 +49 опасность
перегрева
1013.7 994.9
18 12.06 Ю 1 17 км 8/8 360 м
[Cb cap]
+28.5 +23.6 75 +39 +39 очень
душно
1012.6 993.6 +32.3
21 12.06 ЮВ 1 14 км 9/9 360 м
[Sc]
+25.6 +22.2 82 +33 +33 очень
душно
1014.9 995.7
00 13.06 З 1 13 км 9/4 360 м
[Sc Ac trans]
+24.5 +22.4 88 +32 +32 очень
душно
1015.6 996.3
03 13.06 штиль 0 13 км 8/8 360 м
[Sc Ci ing]
+24.6 +22.4 88 +32 +32 очень
душно
1015.3 996.0
06 13.06 штиль 0 13 км 9/6 360 м
[Sc Ac trans]
+24.2 +22.5 90 +32 +32 очень
душно
1016.0 996.7 +23.4
09 13.06 ЮЗ 1 15 км в посл. час дождь 8/5 360 м
[Sc Ac trans]
+26.5 +22.9 81 +35 +40 очень
душно
1017.4 998.2
12 13.06 ЮЗ 1 15 км {дождь} 8/5 480 м
[Cu med, cong Ac trans]
+29.5 +23.5 70 +40 +48 очень
душно
1015.2 996.2 0.0
15 13.06 СЗ 1 8000 м слаб. ливневой дождь, в посл. час гроза 8/4 480 м
[Cb cap Ac trans]
+28.0 +24.9 83 +40 +45 очень
душно
1009.2 990.3
18 13.06 СЗ 1 13 км {гроза, дождь} 9/5 360 м
[Sc Ac trans]
+28.0 +23.9 78 +39 +39 очень
душно
1013.2 994.2 +31.5 2
21 13.06 штиль 0 9000 м гроза, ливневой дождь 10/4 330 м
[Cb cap As op]
+26.0 +24.4 91 +36 +36 очень
душно
1015.5 996.3
00 14.06 ЮЗ 1 12 км в посл. час гроза {дождь} 9/9 330 м
[Sc]
+24.9 +23.4 91 +33 +33 очень
душно
1015.3 996.0 4
03 14.06 ЮЗ 1 12 км 9/9 330 м
[Sc]
+24.5 +23.1 92 +33 +33 очень
душно
1014.3 995.0
06 14.06 Ю 1 12 км в посл. час дождь 9/9 330 м
[Sc]
+24.2 +23.1 94 +32 +32 очень
душно
1014.8 995.5 +23.5 12
09 14.06 штиль 0 7000 м слаб. дождь 9/5 330 м
[Sc As op]
+24.1 +23.4 96 +32 +35 очень
душно
1017.2 997.9
12 14.06 З 1 9000 м слаб. дождь 9/6 330 м
[Sc As op]
+25.5 +23.3 88 +34 +38 очень
душно
1015.8 996.6 23
15 14.06 ЮЗ 1 14 км {дождь} 8/6 360 м
[Cu Sc Ac trans]
+29.6 +24.3 73 +41 +45 опасность
перегрева
1012.9 994.0
21 14.06 штиль 0 9000 м гроза, ливневой дождь 9/5 330 м
[Cb cap As op]
+24.0 +22.6 92 +31 +31 очень
душно
1016.0 996.7
00 15.06 штиль 0 10 км в посл. час гроза {дождь} 9/9 330 м
[Sc]
+24.0 +22.9 94 +32 +32 очень
душно
1014.7 995.4 18
03 15.06 штиль 0 10 км 9/9 330 м
[Sc]
+24.8 +23.7 94 +34 +34 очень
душно
1013.6 994.4
06 15.06 штиль 0 9000 м дымка 9/5 330 м
[Sc Ac trans]
+24.5 +23.1 92 +33 +33 очень
душно
1014.6 995.3 +22.8 47
09 15.06 ЮЗ 1 10 км 8/6 330 м
[Cu Sc Ac trans]
+27.4 +24.7 85 +39 +43 очень
душно
1016.3 997.2
12 15.06 ЮЗ 1 13 км 9/5 330 м
[Cu Sc Ac trans]
+29.8 +24.7 74 +42 +49 опасность
перегрева
1014.5 995.6
15 15.06 ЮЗ 1 13 км 9/9 330 м
[Cu Sc]
+30.2 +24.9 73 +43 +44 опасность
перегрева
1012.8 993.9
18 15.06 Ю 1 13 км 9/9 330 м
[Sc]
+28.0 +23.9 78 +39 +39 очень
душно
1013.8 994.8 +30.2
21 15.06 Ю 1 13 км 8/8 330 м
[Sc]
+26.0 +23.2 85 +35 +35 очень
душно
1016.4 997.2
00 16.06 СЗ 1 13 км 9/9 330 м
[Sc]
+25.7 +23.6 88 +35 +35 очень
душно
1016.3 997.1
03 16.06 штиль 0 9000 м в посл. час дождь 9/9 330 м
[Sc]
+25.5 +23.9 91 +35 +35 очень
душно
1015.1 995.9
09 16.06 ЮЗ 1 13 км 9/9 330 м
[Sc]
+26.7 +24.4 87 +37 +39 очень
душно
1017.0 997.8
12 16.06 СВ 1 15 км 6/6 360 м
[Cu Sc]
+30.5 +25.1 73 +44 +54 опасность
перегрева
1015.3 996.4
15 16.06 ЮЗ 1 17 км 8/4 500 м
[Cb cap Ac trans]
+29.9 +25.4 77 +44 +49 опасность
перегрева
1013.0 994.1

 

Местоположение метеостанции Кофоридуа (Гана): широта 6.08 долгота -0.25 высота над уровнем моря 167 м.

В архиве по умолчанию представлена погода в Кофоридуа за последнюю неделю. Архивные данные за месяц целиком и за предыдущие месяцы, начиная с января 2011 года, Вы можете получить, выбрав интересующий диапазон дат из раскрывающегося списка и нажав кнопку "Ввод!".


*Определитесь, кто Вы:
робот инопланетянин человек

Внимание! Время в таблицах - всемирное. Для получения местного времени необходимо прибавить поправку, которая равна 1 ч.

Смотрите также архив погоды в соседних городах и на ближайших метеорологических станциях:

Погода в Акюсе (Гана) (41 км)
Погода в Аккра (Гана) (54 км)
Погода в Тема (Гана) (58 км)
Погода в Аким Ода (Гана) (82 км)
Погода в Абетифи (Гана) (86 км)
Погода в Хо (Гана) (98 км)
Погода в Ада (Гана) (103 км)
Погода в Акатзи (Гана) (116 км)
Погода в Солтпонде (Гана) (133 км)
Погода в Кумаси (Гана) (165 км)

Пояснения к столбцам:

Ветер - указаны скорость ветра в м/с - средняя за 10 мин, порывы в срок и между сроками (в фигурных скобках) и направление, откуда дует ветер: С - северный, СВ - северо-восточный, В - восточный, ЮВ - юго-восточный, Ю - южный, ЮЗ - юго-западный, З - западный, СЗ - северо-западный.
Видимость - горизонтальная дальность видимости в метрах или километрах. При видимости от 1 до 10 км при отсутствии осадков обычно наблюдается дымка, при ухудшении видимости до 1 км и менее - туман. В сухую погоду видимость может ухудшаться дымом, пылью или мглою.
Явления - указаны атмосферные явления, наблюдавшиеся в срок или в последний час перед сроком; фигурными скобками обозначены явления, наблюдавшиеся между сроками (за 1-3 часа до срока); квадратными скобками обозначены град или гололедные отложения с указанием их диаметра в мм.
Облачность - указаны через наклонную черту общая и нижняя облачность в баллах и высота нижней границы облаков в метрах; квадратными скобками обозначены формы облаков: Ci - перистые, Cs - перисто-слоистые, Cc - перисто-кучевые, Ac - высококучевые, As - высокослоистые, Sc - слоисто-кучевые, Ns - слоисто-дождевые, Cu - кучевые, Cb - кучево-дождевые. Подробнее классификацию облаков см. в Атласе облаков (PDF).
T - Температура воздуха - температура, измеренная на высоте 2 м над землей.
Td - Температура точки росы - температура, при понижении до которой содержащийся в воздухе водяной пар достигнет насыщения.
f - Относительная влажность воздуха - влажноcть воздуха, измеренная на высоте 2 м над землей.
Te - Эффективная температура - температура, которую ощущает одетый по сезону человек в тени. Характеристика душности погоды. При расчете учитывается влияние влажности воздуха и скорости ветра на теплоощущения человека.
Tes - Эффективная температура на солнце - температура, которую ощущает человек, с поправкой на солнечный нагрев. Характеристика знойности погоды. Зависит от высоты солнца над горизонтом, облачности и скорости ветра. Ночью, в пасмурную погоду, а также при ветре 12 м/с и более поправка равна нулю.
P - Атмосферное давление - приведенное к уровню моря атмосферное давление.
Po - Атмосферное давление - измеренное на уровне метеостанции атмосферное давление.
Tmin - Минимальная температура - минимум температуры воздуха на высоте 2 м над землей.
Tmax - Максимальная температура - максимум температуры воздуха на высоте 2 м над землей.
R - Количество осадков - Количество выпавших осадков за период времени, мм. При наведении курсора мыши на число - период времени, за который выпало указанное количество осадков.
R24 - Количество осадков - Количество выпавших осадков за 24 часа, мм.
S - Снежный покров - Высота снежного покрова, см. При наведении курсора мыши на число - состояние снежного покрова и степень покрытия местности в баллах.